Hourly Data Report for September 27, 2017

All times are specified in Local Standard Time (LST). Add 1 hour to adjust for Daylight Saving Time where and when it is observed.

ST. PETERS
PRINCE EDWARD ISLAND

46°27'01.000" N
62°34'33.000" W
29.70 m
8300562
71310
ZSP

Download Data

Hourly Data (September 2017)
Hourly Data Report for September 27, 2017
Temp Definition
°C
Dew Point Temp Definition
°C
Rel Hum Definition
%
Wind Dir Definition
10's deg

Wind Spd Definition
km/h
Visibility Definition
km
Stn Press Definition
kPa
Hmdx Definition


Wind Chill Definition


Weather Definition


TIME
00:00 13.5 9.7 78 6 14   101.54     LegendNANA
01:00 13.3 9.5 78 6 13   101.53     LegendNANA
02:00 13.1 9.3 78 6 12   101.50     LegendNANA
03:00 13.1 9.4 78 7 10   101.43     LegendNANA
04:00 12.9 9.2 78 7 2   101.49     LegendNANA
05:00 11.7 10.1 90 12 3   101.49     LegendNANA
06:00 11.5 10.3 92 12 4   101.46     LegendNANA
07:00 11.6 10.3 92 10 5   101.39     LegendNANA
08:00 11.9 10.8 93 10 5   101.37     LegendNANA
09:00 13.2 12.3 94 12 7   101.28     LegendNANA
10:00 14.1 12.6 91 14 15   101.20     LegendNANA
11:00 13.7 12.7 94 14 13   101.12     LegendNANA
12:00 14.8 13.7 93 15 13   100.96     LegendNANA
13:00 17.8 15.4 86 16 14   100.87     LegendNANA
14:00 19.3 16.3 83 17 14   100.77     LegendNANA
15:00 20.0 16.3 80 17 14   100.71 25   LegendNANA
16:00 20.7 17.4 81 18 7   100.68 26   LegendNANA
17:00 20.5 17.6 83 20 12   100.63 26   LegendNANA
18:00 20.0 17.5 85 19 14   100.55 26   LegendNANA
19:00 19.6 17.3 87 18 19   100.50     LegendNANA
20:00 19.2 17.1 88 18 18   100.44     LegendNANA
21:00 19.1 17.2 89 18 18   100.33     LegendNANA
22:00 19.1 17.4 90 18 16   100.27     LegendNANA
23:00 19.4 17.8 91 20 24   100.20     LegendNANA

Notes on Data Quality.

Legend

  • E = Estimated
  • M = Missing
  • NA = Not Available
  • ‡ = Partner data that is not subject to review by the National Climate Archives
Date modified: